CZ-6A DEB, 54457

Orbit data source: Space-Track

CZ-6A DEB, 54457 is space debris in SSO originally from a launch on Fri, 11 Nov 2022 UTC launched from the Taiyaun Space Center, China (TSC). Debris objects in space refer to the collection of defunct objects orbiting the Earth. Examples of debris include non-operational satellites, rocket bodies, and fragments generated from explosions, collisions, or faulty payload assembly.

Loading next visibility...
Identifier
54457, 2022-151GH
Orbit
SSO
Country
Flag of CNCN / PRC
Related business
Manufacturer
SAST
Mission
Spacecraft
Bus & Motor
Unknown
Mass
Unknown
Launch date (UTC)
2022-11-11 (4 years ago)
Launch vehicle
Unknown
Launch site
Taiyaun Space Center, China (TSC)
Object type
Payload
Rocket body
Debris
Shape & HBR
Unknown shape, 0.1 m
Radar Cross Section
Medium (>0.1 m² and <1 m²)

Expand to show TLE details & history
Last TLE update: 16 hours ago

TLE from 16 hours ago
0 CZ-6A DEB
1 54457U 22151GH  26263.13272579  .00001754  00000-0  61010-3 0  9999
2 54457  98.8731 322.8246 0081478 211.0370 148.5987 14.34911804200753
Epoch: 2026-09-20T03:11Z
TLE epoch observation values (Epoch: 2026-09-20T03:11:07.508Z)
Latitude
0.00002°
Longitude
-83.98798°
Altitude
828.175 km
Speed
7.413 km/s
True Right ascension
21h 31m 17s
True Declination
0° 00' 00"
Sunlit
Object was in full shadow at epoch
Visualization orbit readout
Latitude
Unknown
Longitude
Unknown
Altitude
Unknown
Speed
Unknown
Apparent Right ascension
Unknown
Apparent Declination
Unknown
Sunlit
N/A
Visualization observer readout
Local Sidereal Time
11:58:46
Azimuth
Unknown
Elevation
Unknown
Doppler factor
Unknown
Orbital elements
Apogee altitude
830.768 km
Perigee altitude
714.244 km
Semi-major axis
7,150.643 km
Eccentricity
0.00815
Inclination
98.8731°
RAAN
322.8246°
Arg. of periapsis
211.037°
True anomaly
149.08097°
Mean anomaly
148.5987°
Eccentric anomaly
148.84025°
Mean motion
3.58943 °/min
Orbital period
100.29 mins
BSTAR
0.0006101
Loading maneuver chart data...
Computing Atmospheric mass density...
Loading historical data...
Loading historical data...
Loading historical data...
Loading historical data...
Loading historical data...
Loading historical data...
Loading historical data...

Documentation

Showing up to 5 results
|